AirNav   Air Wisconsin Up To $57,000 Bonus
 
 903 users online  

I74 Grimes Field Airport
Urbana, Ohio, USA

GOING TO URBANA?


FAA INFORMATION EFFECTIVE 05 DECEMBER 2019

Location

FAA Identifier: I74
Lat/Long: 40-07-56.5387N 083-45-14.6258W
40-07.942312N 083-45.243763W
40.1323719,-83.7540627
(estimated)
Elevation: 1067.9 ft. / 325.5 m (surveyed)
Variation: 04W (1985)
From city: 1 mile N of URBANA, OH
Time zone: UTC -5 (UTC -4 during Daylight Saving Time)
Zip code: 43078

Airport Operations

Airport use: Open to the public
Activation date: 07/1942
Control tower: no
ARTCC: INDIANAPOLIS CENTER
FSS: DAYTON FLIGHT SERVICE STATION
NOTAMs facility: DAY (NOTAM-D service available)
Attendance: TUE-SAT 0800-1630, ALL SUN-MON UNATNDD
Wind indicator: lighted
Segmented circle: no
Lights: ACTVT MIRL RWY 02/20; REIL RWY 02 & 20 - CTAF.
Beacon: white-green (lighted land airport)
Operates sunset to sunrise.

Airport Communications

CTAF/UNICOM: 122.7
WX AWOS-3: 118.325 (937-484-5863)
COLUMBUS APPROACH: 118.425
COLUMBUS DEPARTURE: 118.425
CLASS C: 118.425
IC: 118.425
WX AWOS-3 at EDJ (15 nm N): 118.075 (937-599-4654)
WX AWOS-3PT at SGH (18 nm S): 134.975
WX AWOS-3PT at UYF (18 nm SE): 120.85 (740-852-2844)
WX AWOS-3 at SCA (19 nm W): 120.425 (937-492-3683)
WX AWOS-3 at MRT (19 nm E): 119.275 (937-644-2967)

Nearby radio navigation aids

VOR radial/distance  VOR name  Freq  Var
RODr130/16.2ROSEWOOD VORTAC117.5005W
SGHr017/18.2SPRINGFIELD VOR/DME113.2004W
DQNr078/30.3DAYTON VOR/DME114.5001W

 
NDB name  Hdg/Dist  Freq  Var  ID
CLARK COUNTY008/15.634104WCCJ -.-. -.-. .---
COURT HOUSE338/36.041406WCSS -.-. ... ...

Airport Services

Fuel available: 100LL JET-A+
Parking: hangars and tiedowns
Airframe service: MINOR
Powerplant service: MINOR

Runway Information

Runway 2/20

Dimensions: 4400 x 100 ft. / 1341 x 30 m
Surface: asphalt, in good condition
Runway edge lights: medium intensity
RUNWAY 2  RUNWAY 20
Latitude: 40-07.609412N40-08.299047N
Longitude: 083-45.357170W083-45.067192W
Elevation: 1057.8 ft.1067.5 ft.
Traffic pattern: leftleft
Runway heading: 022 magnetic, 018 true202 magnetic, 198 true
Markings: nonprecision, in fair conditionnonprecision, in fair condition
Visual slope indicator: 4-light PAPI on right (3.00 degrees glide path)4-light PAPI on left (3.00 degrees glide path)
Runway end identifier lights: yesyes
Touchdown point: yes, no lightsyes, no lights
Obstructions: 85 ft. tree, 2150 ft. from runway, 22:1 slope to clear88 ft. tree, 2750 ft. from runway, 28:1 slope to clear

Runway 1/19

Dimensions: 3000 x 100 ft. / 914 x 30 m
Surface: turf, in good condition
RUNWAY 1  RUNWAY 19
Latitude: 40-07.680167N40-08.169500N
Longitude: 083-45.334333W083-45.245833W
Elevation: 1060.0 ft.1060.0 ft.
Traffic pattern: leftleft
Runway heading: 012 magnetic, 008 true192 magnetic, 188 true

Airport Ownership and Management from official FAA records

Ownership: Publicly-owned
Owner: CITY OF URBANA
205 S MAIN ST
URBANA, OH 43078
Phone (937) 652-4304
Manager: ELTON CULTICE
1636 N MAIN ST
URBANA, OH 43078
Phone 937-652-4319
AMGR CELL 937-346-5690.

Airport Operational Statistics

Aircraft based on the field: 43
Single engine airplanes: 29
Multi engine airplanes: 9
Helicopters: 1
Ultralights: 4
    
Aircraft operations: avg 64/day *
51% transient general aviation
46% local general aviation
2% military
2% air taxi
* for 12-month period ending 08 September 2019

Additional Remarks

FOR CD CTC COLUMBUS APCH AT 614-338-8537.
SELF SVC FUEL AVBL 24 HRS.
BIRDS & DEER ON AND INVOF ARPT.
125 FT WATER TWR 1 MILE S.

Instrument Procedures

NOTE: All procedures below are presented as PDF files. If you need a reader for these files, you should download the free Adobe Reader.

NOT FOR NAVIGATION. Please procure official charts for flight.
FAA instrument procedures published for use from 05 December 2019 at 0900Z to 02 January 2020 at 0900Z.

 
IAPs - Instrument Approach Procedures
RNAV (GPS) RWY 02   download (210KB)
RNAV (GPS) RWY 20   download (229KB)
VOR-A   download (167KB)
NOTE: Special Alternate Minimums apply   download (62KB)
NOTE: Special Take-Off Minimums/Departure Procedures apply   download (164KB)

Other nearby airports with instrument procedures:

KEDJ - Bellefontaine Regional Airport (15 nm N)
KSGH - Springfield-Beckley Municipal Airport (18 nm S)
KUYF - Madison County Airport (18 nm SE)
KSCA - Sidney Municipal Airport (19 nm W)
KMRT - Union County Airport (19 nm E)
 
Loc | Ops | Rwys | IFR | FBO | Links
Com | Nav | Svcs | Stats | Notes
Area around I74 (Grimes Field Airport)
 
Road maps at: MapQuest Bing Google
 
Aerial photo
WARNING: Photo may not be current or correct
Aerial photo of I74 (Grimes Field Airport)
Photo by Michael Armstrong
Photo taken 11-Oct-2013
looking west.

Do you have a better or more recent aerial photo of Grimes Field Airport that you would like to share? If so, please send us your photo.

 
Sectional chart

 
Airport diagram
CAUTION: Diagram may not be current
Diagram of I74 (Grimes Field Airport)
 
Airport distance calculator
Flying to Grimes Field Airport? Find the distance to fly.

From to I74

Sunrise and sunset
Times for 06-Dec-2019
 Local
(UTC-5)
 Zulu
(UTC)
Morning civil twilight07:1412:14
Sunrise07:4412:44
Sunset17:0822:08
Evening civil twilight17:3922:39

Current date and time
Zulu (UTC)  06-Dec-2019 12:11:29
Local (UTC-5)  06-Dec-2019 07:11:29
 
METAR
KEDJ 
15nm N 
061155Z AUTO 19008KT 10SM FEW080 04/02 A2999 RMK AO1
KUYF 
18nm SE 
061155Z AUTO 22010KT 10SM SCT060 SCT070 OVC090 03/01 A3000 RMK AO2
KSGH 
19nm S 
061156Z AUTO 20007KT 10SM OVC085 06/01 A3001 RMK AO2 SLP170 T00560006 10056 20028 55001
KMRT 
19nm E 
061155Z AUTO 21004KT 10SM BKN100 03/00 A3000 RMK AO2 T00301003 10034 20007
KFFO 
23nm SW 
061156Z AUTO 20004KT 10SM OVC085 04/M01 A3001 RMK AO2 SLP171 T00421006 10043 20009 55001
KDAY 
25nm SW 
061156Z 21007KT 10SM SCT070 SCT080 OVC100 06/M01 A3001 RMK AO2 SLP167 T00561006 10061 20044 53001
TAF
KFFO 
23nm SW 
061100Z 0611/0717 22006KT 9999 SCT030 BKN060 QNH3000INS BECMG 0614/0615 32012G25KT 9999 BKN017 OVC080 QNH3013INS BECMG 0621/0622 35012G25KT 9999 FEW025 SCT100 QNH3020INS BECMG 0702/0703 35006KT 9999 SKC QNH3030INS TX06/0616Z TN00/0703Z
KDAY 
25nm SW 
061135Z 0612/0712 21008KT P6SM OVC100 FM061500 26008KT P6SM OVC050 FM061700 33010KT P6SM OVC015 FM062000 35010KT P6SM SCT025 FM070000 02006KT P6SM SCT250
NOTAMs
Click for the latest NOTAMs
NOTAMs are issued by the DoD/FAA and will open in a separate window not controlled by AirNav.

 

 
 

FBO, Fuel Providers, and Aircraft Ground Support

  
 Business Name 
 
 Contact 
 
 Services / Description 
 
Fuel Prices
 
Comments
  
Grimes Field 937-652-4319
[web site]
[email]
Airport management, Aviation fuel, Aircraft parking (ramp or tiedown), Hangars, Flight training, Catering, Rental cars, Courtesy transportation, Restrooms, Restaurant, ...

More info about Grimes Field
Phillips 66
100LL Jet A
SS $4.75 $3.75 
 Updated 04-Dec-2019
 
   2 read write
SS=Self service
Update Fuel Prices
 

Where to Eat: Catering, Restaurants, Food shops

  
 Business Name 
 
 Contact 
 
 Services / Description 
 
Distance
 
Comments
  
The Airport Cafe 937-652-2010
no information available

If you are affiliated with The Airport Cafe and would like to show here your services, contact info, web link, logo, and more, click here
on airport  
   2 read write
 

Would you like to see your business listed on this page?

 If your business provides an interesting product or service to pilots, flight crews, aircraft, or users of the Grimes Field Airport, you should consider listing it here.  To start the listing process, click on the button below
 
Add a business
 

Other Pages about Grimes Field Airport

www.grimesfield.com
 
Update a link
 
Copyright © AirNav, LLC. All rights reserved. Privacy Policy  Contact